Dewpoint
60 59 59 59 59 60 62 62 63 62 62 61 60 60 59 59 58 52 43 50 45 54 52 34 34 30 32 33 34 33 27 25 24 23 21 25 24 24 25 26 35 40 50 51 56
59 59 59 59 59 59 61 62 63 62 61 61 60 59 59 58 49 45 50 56 57 54 36 31 34 31 29 32 31 26 27 27 26 25 22 26 24 22 23 28 35 52 56 56 56
60 59 58 58 59 59 60 61 62 62 61 60 59 60 59 54 41 41 55 59 58 56 39 38 32 30 29 31 30 28 26 25 23 25 25 25 23 22 22 21 32 51 55 56 56
60 58 58 58 59 59 60 61 62 61 61 60 60 60 58 46 32 40 57 58 60 47 41 39 32 29 28 28 29 24 24 24 27 27 26 24 23 20 20 19 26 54 56 56 55
59 57 57 57 58 58 59 61 61 61 60 60 60 58 46 38 36 39 58 58 55 46 40 45 36 29 26 27 26 26 24 22 27 26 25 25 23 20 20 24 30 54 56 56 56
58 57 57 56 57 58 59 61 60 60 60 60 59 57 40 34 39 46 51 54 50 43 36 43 44 34 31 25 25 25 24 21 24 24 25 24 21 21 21 28 41 53 54 55 56
58 57 56 56 57 58 58 60 60 60 60 59 58 46 40 37 40 51 48 50 48 40 35 35 37 36 35 28 26 24 20 20 20 23 22 22 21 20 21 29 40 49 53 54 54
58 56 56 56 57 58 58 60 59 60 59 59 58 44 38 41 44 47 45 43 45 38 36 36 33 31 28 27 23 20 20 17 19 22 23 22 20 21 20 25 35 42 46 51 52
57 56 56 56 56 57 58 60 59 60 59 58 49 41 37 44 39 43 41 40 38 36 34 33 31 29 29 20 19 20 17 16 18 22 22 23 20 21 19 22 23 27 29 35 44
57 55 55 56 57 57 59 59 59 58 55 47 46 38 35 34 38 42 40 36 33 34 33 36 32 30 27 20 16 18 16 17 16 19 20 19 17 17 18 15 16 15 16 17 22
56 55 55 56 57 58 58 55 49 48 47 40 40 32 33 34 38 39 38 34 33 30 28 34 31 31 28 22 19 15 14 15 16 19 20 18 16 17 17 16 16 16 16 16 15
55 55 55 56 56 57 52 45 43 44 41 42 41 35 36 34 32 36 35 30 30 27 27 31 30 32 28 24 21 20 15 13 21 23 18 18 19 20 19 19 16 16 17 18 17
54 54 55 55 56 53 47 40 43 39 31 35 38 34 35 33 31 33 33 31 27 26 25 25 27 33 24 22 20 19 16 13 15 20 19 19 10 13 18 20 19 20 18 18 19
54 54 54 55 52 49 42 41 41 31 24 28 33 33 37 34 30 34 34 30 27 25 25 23 24 22 24 19 20 18 16 15 20 13 9 9 6 1 6 13 19 18 19 19 19
54 54 54 54 49 44 41 41 38 26 16 27 30 35 36 30 31 32 33 27 25 22 23 22 21 21 20 20 18 18 22 21 20 15 12 12 2 2 9 9 10 16 19 19 21
54 54 54 52 49 43 45 40 34 21 18 27 30 33 31 30 30 31 29 28 26 23 22 22 24 21 20 21 18 22 18 18 18 11 8 8 5 5 4 8 8 13 17 20 26
54 54 52 50 45 46 46 37 25 21 24 25 28 30 27 28 29 27 26 24 21 19 18 20 22 24 23 19 23 18 12 12 9 10 7 14 7 7 8 10 9 12 21 30 33
54 54 51 49 47 48 43 29 15 21 22 27 31 28 25 27 27 26 24 24 23 19 19 17 16 21 22 19 19 17 13 16 9 11 6 14 11 7 15 17 16 19 29 31 34
54 51 50 49 47 47 36 27 20 22 26 27 28 24 26 25 26 24 24 24 22 20 16 16 17 25 24 25 20 18 16 17 18 19 18 12 11 13 18 18 27 30 31 32 34
51 49 47 49 47 43 32 25 22 26 27 26 24 23 23 23 25 23 23 23 21 21 18 17 19 27 24 24 22 19 18 16 18 14 7 6 10 6 15 19 28 30 31 33 36
49 44 48 49 47 39 30 26 29 33 27 24 25 24 23 23 25 22 23 23 22 21 18 23 24 25 24 21 19 16 14 14 18 19 13 11 7 12 10 20 21 30 31 33 36
45 38 50 48 38 35 29 27 34 36 36 32 26 25 24 24 25 23 23 21 23 21 17 25 26 23 20 24 27 22 15 15 10 12 16 15 5 13 15 22 22 22 30 34 36
40 39 46 45 33 33 29 29 34 35 35 32 26 25 26 24 24 25 25 30 25 21 23 27 25 22 21 20 25 22 20 17 19 21 20 15 9 20 25 24 23 25 30 34 35
38 35 40 43 35 33 28 28 33 38 37 36 32 28 25 24 27 26 29 34 32 25 35 31 27 22 15 14 22 21 21 19 16 20 18 16 9 11 21 24 28 29 32 34 35
37 37 38 34 35 33 29 29 33 33 37 37 34 27 26 25 25 28 34 34 35 35 31 25 20 22 25 23 23 23 21 19 16 12 12 9 10 9 18 20 29 32 34 34 35
34 37 37 36 34 32 31 29 30 36 36 35 31 33 31 26 24 29 33 31 28 33 27 27 17 25 23 27 24 24 22 21 17 16 13 14 13 14 16 24 31 32 34 34 34
38 39 39 37 33 31 30 28 30 36 37 38 36 35 34 37 38 36 34 34 31 29 28 26 25 19 15 27 23 22 22 20 18 16 15 13 13 17 18 22 28 32 33 34 34
Lifted_Index
1 1 1 2 2 2 1 1 1 1 1 1 3 4 5 5 5 4 2 1 3 6 8 7 5 4 6 8 8 7 5 5 6 7 6 7 7 6 6 6 6 5 3 2 1
1 1 1 2 2 1 1 -0 -0 -0 0 1 2 4 5 6 6 5 3 3 3 5 6 6 5 4 5 6 6 5 4 5 6 7 7 7 7 6 6 6 5 4 2 1 1
0 1 1 2 1 1 0 -1 -1 -1 -1 -0 1 3 5 6 7 6 5 5 4 5 5 5 4 3 3 3 4 4 4 5 6 7 7 7 7 7 7 6 5 3 1 1 1
-0 0 1 2 2 1 0 -1 -1 -1 -1 -1 1 3 5 6 7 7 6 5 5 6 6 5 4 3 3 3 2 2 3 5 6 7 7 7 7 7 7 7 6 3 1 1 1
0 0 1 2 2 2 1 -0 -1 -1 -1 -0 1 3 4 6 7 7 6 5 4 5 5 5 5 4 4 4 3 3 3 5 7 7 7 7 7 7 8 8 6 3 1 1 1
1 1 1 1 2 2 1 0 -0 -0 0 1 2 4 5 6 7 7 5 5 4 4 4 5 6 6 5 5 5 5 5 5 7 7 7 7 7 7 8 8 7 3 1 1 1
1 1 1 1 1 1 1 0 -0 0 1 1 3 4 5 6 7 7 6 5 6 5 5 6 7 6 5 5 6 6 6 6 6 7 7 7 6 7 8 8 7 4 3 2 1
1 1 1 1 0 0 -0 -0 -0 0 1 2 3 5 6 7 7 7 6 6 7 7 8 8 8 6 5 5 5 6 6 5 6 7 7 7 6 7 8 8 7 6 4 3 3
1 1 1 0 -0 -1 -1 -1 -0 0 1 2 4 5 5 6 7 7 7 6 7 8 9 9 8 7 5 4 3 4 5 5 6 6 7 6 6 7 7 8 7 7 6 5 5
1 1 1 -0 -1 -1 -1 -1 -0 1 2 3 4 5 6 6 7 8 7 7 7 8 8 8 7 5 4 3 3 4 5 5 6 6 6 6 6 6 7 7 7 7 7 7 7
1 1 1 -0 -1 -1 -0 0 1 2 4 5 6 6 6 6 7 8 8 8 8 7 6 6 5 4 3 4 5 6 6 6 6 6 6 6 6 6 7 7 7 7 7 7 7
1 1 1 0 -0 0 0 1 2 3 5 6 6 6 6 6 7 7 8 8 8 7 6 5 4 4 4 5 7 8 7 7 6 6 6 6 6 6 7 7 7 7 7 7 7
1 1 1 1 1 1 1 2 3 4 5 5 6 6 6 6 6 7 7 8 8 7 6 5 5 5 6 7 8 8 8 7 7 6 6 5 5 5 6 7 8 7 7 7 7
1 1 1 1 1 2 2 3 3 3 4 4 5 5 5 6 6 6 7 7 8 8 7 7 7 7 6 7 8 8 7 7 6 6 5 5 4 5 6 7 7 7 7 7 7
1 0 1 1 2 2 3 4 4 3 3 4 5 5 5 5 6 6 7 7 7 8 8 8 8 8 7 7 8 8 7 6 6 5 5 4 4 4 5 6 6 6 6 6 7
0 0 1 1 2 3 4 4 4 3 3 4 5 5 5 5 6 6 6 7 7 7 8 8 8 8 8 7 7 7 6 5 5 4 4 4 4 4 5 5 5 5 5 6 7
0 1 1 1 2 3 4 4 3 3 4 5 5 5 4 5 5 6 6 6 6 7 7 8 8 8 8 7 7 6 5 4 3 2 3 3 4 4 5 5 5 5 5 6 6
1 1 2 2 2 3 4 4 4 4 5 5 5 4 4 4 5 5 5 6 6 6 7 7 7 7 7 6 6 5 4 3 2 1 2 3 4 5 6 6 5 5 5 6 6
1 2 2 2 2 3 4 4 4 5 5 5 4 4 4 4 4 5 5 5 5 6 6 5 5 5 5 5 5 4 3 3 2 1 2 3 4 4 5 5 5 5 5 6 7
1 2 2 2 3 3 4 5 5 5 4 4 4 4 4 3 4 5 5 5 5 5 5 4 4 4 4 4 3 3 3 2 2 1 1 2 3 4 4 4 4 4 5 6 7
2 2 2 2 3 4 5 5 5 4 4 3 3 3 4 4 4 4 5 5 5 4 4 4 3 3 3 3 3 3 2 2 1 1 1 1 2 3 3 4 4 4 5 6 7
2 2 2 3 4 5 5 5 4 4 3 3 3 3 3 3 3 4 4 4 4 4 4 3 3 3 2 3 3 3 2 2 1 1 1 1 2 3 3 4 4 5 5 6 6
3 3 3 3 4 5 5 5 4 3 3 3 3 3 3 3 3 3 3 4 3 3 3 3 3 2 2 2 3 3 3 2 2 1 1 1 2 3 3 4 4 4 5 5 6
3 3 3 4 5 5 5 5 4 3 3 3 3 3 3 2 3 3 3 3 3 3 3 3 3 2 2 2 3 3 2 2 2 1 1 2 2 3 3 3 4 4 5 5 5
3 4 4 5 6 6 6 5 4 3 3 3 3 3 3 3 3 3 3 3 3 3 3 3 3 3 3 3 3 2 2 2 2 2 2 3 3 3 4 4 4 5 5 5 5
4 4 5 6 6 6 6 5 4 3 3 3 3 3 3 3 3 3 3 3 3 3 3 3 3 3 2 2 2 2 2 2 2 3 3 4 3 3 4 4 5 5 5 5 5
5 5 5 5 6 6 6 5 4 3 3 3 3 3 3 3 3 3 3 3 3 3 3 3 2 2 2 2 2 2 2 2 3 3 4 4 4 3 3 4 4 5 5 5 5